GalileoSat-7

operational
NORAD ID: 40544 Int'l Des: 2015-017 Owner: GSAEU Country: I-EU Constellation: Galileo
MEOCIRCULAR

GalileoSat-7について

説明を読み込み中...

リアルタイム位置

3D地球を読み込み中...

次回通過

高度履歴

Altitude vs Time

uPlot chart will show altitude changes over time

軌道要素

1 40544U 15017A 26058.52158610 -.00000103 00000-0 00000+0 0 9994
2 40544 56.8234 344.5881 0005161 295.0116 64.9415 1.70475495 67337
Epoch: Feb 27, 2026 • Age: 113 hours

現在のステータス

高度 23234.6 km
速度 3.67 km/s
衛星直下点 43.60°N, 37.07°W
打ち上げ日 Mar 27, 2015
運用期間 10.9 years
タイプ navigation

技術仕様

分類 Payload
質量 733.00 kg
乾燥質量 660.00 kg
総質量 733.00 kg
長さ 2.70 m
直径 1.60 m
スパン 14.50 m
形状 Box+2 pan
製造者 OHB
バスタイプ GalileoSat
フェーズステータス In Orbit
所有者/国 GSAEU/I-EU

大規模コンステレーション

Loading constellations...